Time,TemperatureF,DewpointF,PressureIn,WindDirection,WindDirectionDegrees,WindSpeedMPH,WindSpeedGustMPH,Humidity,HourlyPrecipIn,Conditions,Clouds,dailyrainin,SolarRadiationWatts/m^2,SoftwareType,DateUTC
2013-05-30 00:22:00,52.0,48.0,-100.00,WSW,247,3.0,10.0,87,0.00,,,0.01,0.000000,,2013-05-30 06:22:00,
2013-05-30 00:32:00,52.0,48.0,-100.00,WSW,247,3.0,10.0,87,0.00,,,0.01,0.000000,,2013-05-30 06:32:00,
2013-05-30 00:42:00,52.0,48.0,-100.00,WSW,247,3.0,10.0,87,0.00,,,0.01,0.000000,,2013-05-30 06:42:00,
2013-05-30 00:52:00,52.0,48.0,-100.00,WSW,247,3.0,10.0,87,0.00,,,0.01,0.000000,,2013-05-30 06:52:00,
2013-05-30 01:22:00,51.0,48.0,-100.00,NW,321,3.0,10.0,89,0.00,,,0.01,0.000000,,2013-05-30 07:22:00,
2013-05-30 01:32:00,51.0,48.0,-100.00,NW,321,3.0,10.0,89,0.00,,,0.01,0.000000,,2013-05-30 07:32:00,
2013-05-30 01:42:00,51.0,48.0,-100.00,NW,321,3.0,10.0,89,0.00,,,0.01,0.000000,,2013-05-30 07:42:00,
2013-05-30 01:52:00,51.0,48.0,-100.00,NW,321,3.0,10.0,89,0.00,,,0.01,0.000000,,2013-05-30 07:52:00,
2013-05-30 02:22:00,52.0,49.0,-100.00,West,270,7.0,14.0,89,0.00,,,0.01,0.000000,,2013-05-30 08:22:00,
2013-05-30 02:32:00,52.0,49.0,-100.00,West,270,7.0,14.0,89,0.00,,,0.01,0.000000,,2013-05-30 08:32:00,
2013-05-30 02:42:00,52.0,49.0,-100.00,West,270,7.0,14.0,89,0.00,,,0.01,0.000000,,2013-05-30 08:42:00,
2013-05-30 02:52:00,52.0,49.0,-100.00,West,270,7.0,14.0,89,0.00,,,0.01,0.000000,,2013-05-30 08:52:00,
2013-05-30 03:21:00,52.0,49.0,-100.00,West,279,8.0,24.0,91,0.00,,,0.01,0.000000,,2013-05-30 09:21:00,
2013-05-30 03:33:00,52.0,49.0,-100.00,West,279,8.0,24.0,91,0.00,,,0.01,0.000000,,2013-05-30 09:33:00,
2013-05-30 03:42:00,52.0,49.0,-100.00,West,279,8.0,24.0,91,0.00,,,0.01,0.000000,,2013-05-30 09:42:00,
2013-05-30 03:53:00,52.0,49.0,-100.00,West,279,8.0,24.0,91,0.00,,,0.01,0.000000,,2013-05-30 09:53:00,
2013-05-30 04:23:00,51.0,48.0,-100.00,WNW,295,8.0,18.0,90,0.00,,,0.01,0.000000,,2013-05-30 10:23:00,
2013-05-30 04:32:00,51.0,48.0,-100.00,WNW,295,8.0,18.0,90,0.00,,,0.01,0.000000,,2013-05-30 10:32:00,
2013-05-30 04:42:00,51.0,48.0,-100.00,WNW,295,8.0,18.0,90,0.00,,,0.01,0.000000,,2013-05-30 10:42:00,
2013-05-30 04:52:00,51.0,48.0,-100.00,WNW,295,8.0,18.0,90,0.00,,,0.01,0.000000,,2013-05-30 10:52:00,
2013-05-30 05:22:00,50.0,48.0,-100.00,West,265,10.0,22.0,94,0.00,,,0.01,0.000000,,2013-05-30 11:22:00,
2013-05-30 05:32:00,50.0,48.0,-100.00,West,265,10.0,22.0,94,0.00,,,0.01,0.000000,,2013-05-30 11:32:00,
2013-05-30 05:42:00,50.0,48.0,-100.00,West,265,10.0,22.0,94,0.00,,,0.01,0.000000,,2013-05-30 11:42:00,
2013-05-30 05:52:00,50.0,48.0,-100.00,West,265,10.0,22.0,94,0.00,,,0.01,0.000000,,2013-05-30 11:52:00,
2013-05-30 06:22:00,49.0,47.0,-100.00,West,278,11.0,25.0,94,0.00,,,0.01,3.000000,,2013-05-30 12:22:00,
2013-05-30 06:32:00,49.0,47.0,-100.00,West,278,11.0,25.0,94,0.00,,,0.01,3.000000,,2013-05-30 12:32:00,
2013-05-30 06:42:00,49.0,47.0,-100.00,West,278,11.0,25.0,94,0.00,,,0.01,3.000000,,2013-05-30 12:42:00,
2013-05-30 06:52:00,49.0,47.0,-100.00,West,278,11.0,25.0,94,0.00,,,0.01,3.000000,,2013-05-30 12:52:00,
2013-05-30 07:22:00,49.0,46.0,-100.00,WNW,287,8.0,22.0,89,0.00,,,0.01,26.000000,,2013-05-30 13:22:00,
2013-05-30 07:32:00,49.0,46.0,-100.00,WNW,287,8.0,22.0,89,0.00,,,0.01,26.000000,,2013-05-30 13:32:00,
2013-05-30 07:42:00,49.0,46.0,-100.00,WNW,287,8.0,22.0,89,0.00,,,0.01,26.000000,,2013-05-30 13:42:00,
2013-05-30 07:52:00,49.0,46.0,-100.00,WNW,287,8.0,22.0,89,0.00,,,0.01,26.000000,,2013-05-30 13:52:00,
2013-05-30 08:22:00,52.0,47.0,-100.00,WNW,289,10.0,26.0,83,0.00,,,0.01,191.000000,,2013-05-30 14:22:00,
2013-05-30 08:32:00,52.0,47.0,-100.00,WNW,289,10.0,26.0,83,0.00,,,0.01,191.000000,,2013-05-30 14:32:00,
2013-05-30 08:42:00,52.0,47.0,-100.00,WNW,289,10.0,26.0,83,0.00,,,0.01,191.000000,,2013-05-30 14:42:00,
2013-05-30 08:52:00,52.0,47.0,-100.00,WNW,289,10.0,26.0,83,0.00,,,0.01,191.000000,,2013-05-30 14:52:00,
2013-05-30 10:12:00,50.0,45.0,-100.00,WNW,284,12.0,31.0,83,-99.99,,,0.05,354.000000,,2013-05-30 16:12:00,
2013-05-30 10:23:00,50.0,45.0,-100.00,WNW,284,12.0,31.0,83,-99.99,,,0.05,354.000000,,2013-05-30 16:23:00,
2013-05-30 10:33:00,50.0,45.0,-100.00,WNW,284,12.0,31.0,83,-99.99,,,0.05,354.000000,,2013-05-30 16:33:00,
2013-05-30 10:42:00,50.0,45.0,-100.00,WNW,284,12.0,31.0,83,-99.99,,,0.05,354.000000,,2013-05-30 16:42:00,
2013-05-30 10:52:00,50.0,45.0,-100.00,WNW,284,12.0,31.0,83,-99.99,,,0.05,354.000000,,2013-05-30 16:52:00,
2013-05-30 11:22:00,48.0,44.0,-100.00,West,276,12.0,38.0,87,0.03,,,0.08,328.000000,,2013-05-30 17:22:00,
2013-05-30 11:32:00,48.0,44.0,-100.00,West,276,12.0,38.0,87,0.03,,,0.08,328.000000,,2013-05-30 17:32:00,
2013-05-30 11:42:00,48.0,44.0,-100.00,West,276,12.0,38.0,87,0.03,,,0.08,328.000000,,2013-05-30 17:42:00,
2013-05-30 11:52:00,48.0,44.0,-100.00,West,276,12.0,38.0,87,0.03,,,0.08,328.000000,,2013-05-30 17:52:00,
2013-05-30 12:11:00,50.0,45.0,-100.00,WNW,285,13.0,29.0,84,0.04,,,0.12,522.000000,,2013-05-30 18:11:00,
2013-05-30 12:22:00,50.0,45.0,-100.00,WNW,285,13.0,29.0,84,0.04,,,0.12,522.000000,,2013-05-30 18:22:00,
2013-05-30 12:32:00,50.0,45.0,-100.00,WNW,285,13.0,29.0,84,0.04,,,0.12,522.000000,,2013-05-30 18:32:00,
2013-05-30 12:42:00,50.0,45.0,-100.00,WNW,285,13.0,29.0,84,0.04,,,0.12,522.000000,,2013-05-30 18:42:00,
2013-05-30 12:51:00,50.0,45.0,-100.00,WNW,285,13.0,29.0,84,0.04,,,0.12,522.000000,,2013-05-30 18:51:00,
2013-05-30 13:12:00,47.0,43.0,-100.00,WNW,288,12.0,32.0,86,0.05,,,0.17,389.000000,,2013-05-30 19:12:00,
2013-05-30 13:23:00,47.0,43.0,-100.00,WNW,288,12.0,32.0,86,0.05,,,0.17,389.000000,,2013-05-30 19:23:00,
2013-05-30 13:32:00,47.0,43.0,-100.00,WNW,288,12.0,32.0,86,0.05,,,0.17,389.000000,,2013-05-30 19:32:00,
2013-05-30 13:42:00,47.0,43.0,-100.00,WNW,288,12.0,32.0,86,0.05,,,0.17,389.000000,,2013-05-30 19:42:00,
2013-05-30 13:52:00,47.0,43.0,-100.00,WNW,288,12.0,32.0,86,0.05,,,0.17,389.000000,,2013-05-30 19:52:00,
2013-05-30 14:22:00,46.0,43.0,-100.00,West,273,15.0,32.0,90,0.13,,,0.30,193.000000,,2013-05-30 20:22:00,
2013-05-30 14:33:00,46.0,43.0,-100.00,West,273,15.0,32.0,90,0.13,,,0.30,193.000000,,2013-05-30 20:33:00,
2013-05-30 14:42:00,46.0,43.0,-100.00,West,273,15.0,32.0,90,0.13,,,0.30,193.000000,,2013-05-30 20:42:00,
2013-05-30 14:52:00,46.0,43.0,-100.00,West,273,15.0,32.0,90,0.13,,,0.30,193.000000,,2013-05-30 20:52:00,
2013-05-30 15:11:00,45.0,43.0,-100.00,West,277,12.0,37.0,92,0.11,,,0.41,198.000000,,2013-05-30 21:11:00,
2013-05-30 15:22:00,45.0,43.0,-100.00,West,277,12.0,37.0,92,0.11,,,0.41,198.000000,,2013-05-30 21:22:00,
2013-05-30 15:33:00,45.0,43.0,-100.00,West,277,12.0,37.0,92,0.11,,,0.41,198.000000,,2013-05-30 21:33:00,
2013-05-30 15:43:00,45.0,43.0,-100.00,West,277,12.0,37.0,92,0.11,,,0.41,198.000000,,2013-05-30 21:43:00,
2013-05-30 15:53:00,45.0,43.0,-100.00,West,277,12.0,37.0,92,0.11,,,0.41,198.000000,,2013-05-30 21:53:00,
2013-05-30 16:12:00,45.0,43.0,-100.00,West,280,12.0,33.0,91,0.19,,,0.60,118.000000,,2013-05-30 22:12:00,
2013-05-30 16:23:00,45.0,43.0,-100.00,West,280,12.0,33.0,91,0.19,,,0.60,118.000000,,2013-05-30 22:23:00,
2013-05-30 16:33:00,45.0,43.0,-100.00,West,280,12.0,33.0,91,0.19,,,0.60,118.000000,,2013-05-30 22:33:00,
2013-05-30 16:42:00,45.0,43.0,-100.00,West,280,12.0,33.0,91,0.19,,,0.60,118.000000,,2013-05-30 22:42:00,
2013-05-30 16:52:00,45.0,43.0,-100.00,West,280,12.0,33.0,91,0.19,,,0.60,118.000000,,2013-05-30 22:52:00,
2013-05-30 17:22:00,45.0,43.0,-100.00,West,279,13.0,37.0,92,0.16,,,0.76,60.000000,,2013-05-30 23:22:00,
2013-05-30 17:32:00,45.0,43.0,-100.00,West,279,13.0,37.0,92,0.16,,,0.76,60.000000,,2013-05-30 23:32:00,
2013-05-30 17:41:00,45.0,43.0,-100.00,West,279,13.0,37.0,92,0.16,,,0.76,60.000000,,2013-05-30 23:41:00,
2013-05-30 17:52:00,45.0,43.0,-100.00,West,279,13.0,37.0,92,0.16,,,0.76,60.000000,,2013-05-30 23:52:00,
2013-05-30 18:22:00,45.0,43.0,-100.00,WNW,285,17.0,45.0,91,0.14,,,0.89,58.000000,,2013-05-31 00:22:00,
2013-05-30 18:32:00,45.0,43.0,-100.00,WNW,285,17.0,45.0,91,0.14,,,0.89,58.000000,,2013-05-31 00:32:00,
2013-05-30 18:42:00,45.0,43.0,-100.00,WNW,285,17.0,45.0,91,0.14,,,0.89,58.000000,,2013-05-31 00:42:00,
2013-05-30 18:52:00,45.0,43.0,-100.00,WNW,285,17.0,45.0,91,0.14,,,0.89,58.000000,,2013-05-31 00:52:00,
2013-05-30 19:21:00,45.0,42.0,-100.00,WNW,289,14.0,51.0,90,0.06,,,0.95,58.000000,,2013-05-31 01:21:00,
2013-05-30 19:32:00,45.0,42.0,-100.00,WNW,289,14.0,51.0,90,0.06,,,0.95,58.000000,,2013-05-31 01:32:00,
2013-05-30 19:42:00,45.0,42.0,-100.00,WNW,289,14.0,51.0,90,0.06,,,0.95,58.000000,,2013-05-31 01:42:00,
2013-05-30 19:52:00,45.0,42.0,-100.00,WNW,289,14.0,51.0,90,0.06,,,0.95,58.000000,,2013-05-31 01:52:00,
2013-05-30 20:11:00,44.0,42.0,-100.00,West,281,14.0,45.0,91,0.04,,,0.99,32.000000,,2013-05-31 02:11:00,
2013-05-30 20:22:00,44.0,42.0,-100.00,West,281,14.0,45.0,91,0.04,,,0.99,32.000000,,2013-05-31 02:22:00,
2013-05-30 20:32:00,44.0,42.0,-100.00,West,281,14.0,45.0,91,0.04,,,0.99,32.000000,,2013-05-31 02:32:00,
2013-05-30 20:42:00,44.0,42.0,-100.00,West,281,14.0,45.0,91,0.04,,,0.99,32.000000,,2013-05-31 02:42:00,
2013-05-30 20:51:00,44.0,42.0,-100.00,West,281,14.0,45.0,91,0.04,,,0.99,32.000000,,2013-05-31 02:51:00,
2013-05-30 21:21:00,44.0,42.0,-100.00,WNW,291,16.0,36.0,91,0.02,,,1.01,4.000000,,2013-05-31 03:21:00,
2013-05-30 21:33:00,44.0,42.0,-100.00,WNW,291,16.0,36.0,91,0.02,,,1.01,4.000000,,2013-05-31 03:33:00,
2013-05-30 21:43:00,44.0,42.0,-100.00,WNW,291,16.0,36.0,91,0.02,,,1.01,4.000000,,2013-05-31 03:43:00,
2013-05-30 21:53:00,44.0,42.0,-100.00,WNW,291,16.0,36.0,91,0.02,,,1.01,4.000000,,2013-05-31 03:53:00,
2013-05-30 22:12:00,44.0,42.0,-100.00,WNW,289,14.0,37.0,91,0.01,,,1.02,0.000000,,2013-05-31 04:12:00,
2013-05-30 22:22:00,44.0,42.0,-100.00,WNW,289,14.0,37.0,91,0.01,,,1.02,0.000000,,2013-05-31 04:22:00,
2013-05-30 22:33:00,44.0,42.0,-100.00,WNW,289,14.0,37.0,91,0.01,,,1.02,0.000000,,2013-05-31 04:33:00,
2013-05-30 22:42:00,44.0,42.0,-100.00,WNW,289,14.0,37.0,91,0.01,,,1.02,0.000000,,2013-05-31 04:42:00,
2013-05-30 22:53:00,44.0,42.0,-100.00,WNW,289,14.0,37.0,91,0.01,,,1.02,0.000000,,2013-05-31 04:53:00,
2013-05-30 23:22:00,44.0,41.0,-100.00,WNW,289,15.0,43.0,90,0.02,,,1.04,0.000000,,2013-05-31 05:22:00,
2013-05-30 23:32:00,44.0,41.0,-100.00,WNW,289,15.0,43.0,90,0.02,,,1.04,0.000000,,2013-05-31 05:32:00,
2013-05-30 23:42:00,44.0,41.0,-100.00,WNW,289,15.0,43.0,90,0.02,,,1.04,0.000000,,2013-05-31 05:42:00,
2013-05-30 23:52:00,44.0,41.0,-100.00,WNW,289,15.0,43.0,90,0.02,,,1.04,0.000000,,2013-05-31 05:52:00,